[[{"header":{"parameterUnit":"m.s-1","parameterCategory":1,"la1":30.2992,"la2":30.254,"lo1":-89.0895,"lo2":-89.0443,"dy":0.0025,"dx":0.0025,"nx":19,"ny":19,"refTime":"2026-05-24T21:00:00:Z","depth":0,"parameterNumber":2,"parameterNumberName":"U-component_of_WINDS"},"data":[0,0,0,-2.5115,-2.5121,-2.5425,-2.5427,-2.5781,-2.5784,0,0,0,0,0,0,0,0,0,0,0,-2.5001,-2.5002,-2.5114,-2.5121,-2.5425,-2.5427,-2.5781,-2.5784,0,0,0,0,0,0,0,0,0,0,0,-2.5,-2.5002,-2.5004,-2.5122,-2.5425,-2.5427,-2.578,-2.5564,0,0,0,0,0,0,0,0,0,0,-2.5274,-2.5145,-2.5001,-2.5004,-2.5124,-2.5425,-2.5427,-2.5554,-2.5577,-2.5627,0,-2.5663,0,-2.5729,-2.5805,-2.5806,0,0,0,-2.514,-2.5125,-2.5228,-2.5004,-2.5127,-2.5424,-2.5294,-2.5567,-2.5594,-2.5658,-2.5668,-2.5683,-2.5734,-2.5807,-2.5809,-2.6028,-2.6028,0,0,-2.5124,-2.5043,-2.521,-2.5244,-2.5191,-2.5284,-2.5303,-2.5584,-2.5591,-2.567,-2.5692,-2.574,-2.5809,-2.5812,-2.6028,-2.6028,0,0,0,-2.5063,-2.5031,-2.5128,-2.5228,-2.5285,-2.5292,-2.5314,-2.5579,-2.5617,-2.5696,-2.5744,-2.5811,-2.5815,-2.6028,-2.6028,-2.5955,0,0,0,-2.5053,-2.4995,-2.512,-2.5074,-2.5279,-2.5435,-2.5301,-2.5597,-2.5632,-2.5743,-2.5811,-2.5818,-2.6028,-2.6028,-2.5957,-2.5934,0,0,0,-2.4989,-2.4988,-2.5023,-2.5069,-2.5196,-2.5433,-2.5488,-2.5607,-2.5661,-2.5807,-2.5819,-2.6028,-2.6028,-2.5958,-2.5937,-2.5968,0,0,0,-2.4898,-2.4956,-2.5021,-2.5104,-2.5193,-2.5384,-2.5487,-2.5634,-2.575,-2.5813,-2.6028,-2.6028,-2.5959,-2.5939,-2.5969,-2.5978,-2.5975,0,0,-2.4926,-2.4956,-2.5012,-2.5079,-2.5237,-2.5344,-2.5494,-2.5678,-2.5768,-2.5937,-2.5943,-2.5956,-2.5937,-2.5968,-2.5983,-2.5979,0,0,0,-2.4994,-2.5032,-2.5092,-2.5197,-2.5337,-2.5456,-2.5626,-2.5695,-2.5842,-2.5837,-2.5978,-2.597,-2.5991,-2.6,-2.5997,-2.602,-2.6028,-2.6028,-2.6028,-2.4918,-2.5026,-2.5126,-2.527,-2.5372,-2.5545,-2.5638,-2.5761,-2.5843,-2.5875,-2.5925,-2.5921,-2.5927,-2.5926,-2.5949,-2.594,-2.594,-2.5939,-2.5939,-2.4969,-2.5041,-2.5146,-2.528,-2.5395,-2.551,-2.568,-2.5734,-2.586,-2.5891,-2.5916,-2.5941,-2.5918,-2.5944,-2.5935,-2.5936,-2.5936,-2.5937,-2.5937,-2.4931,-2.4984,-2.5065,-2.5228,-2.5342,-2.5489,-2.5603,-2.5705,-2.5803,-2.5826,-2.5892,-2.5893,-2.5907,-2.585,-2.585,-2.585,-2.585,-2.585,-2.585,-2.486,-2.4953,-2.5035,-2.5188,-2.5268,-2.5388,-2.5563,-2.5647,-2.5766,-2.5832,-2.5833,-2.5912,-2.5895,-2.5888,-2.585,-2.585,-2.585,-2.585,-2.585,-2.487,-2.4884,-2.501,-2.5091,-2.5279,-2.5386,-2.5514,-2.5675,-2.576,-2.5813,-2.5888,-2.5858,-2.5898,-2.5901,-2.5896,-2.5863,-2.5863,-2.5863,-2.5863,-2.4838,-2.4867,-2.5019,-2.5141,-2.5273,-2.5402,-2.5544,-2.5681,-2.5826,-2.5885,-2.5905,-2.5908,-2.5906,-2.5947,-2.5949,-2.5946,-2.5927,-2.5927,-2.5927,-2.4851,-2.4897,-2.4996,-2.5134,-2.5289,-2.542,-2.5557,-2.5696,-2.5864,-2.5931,-2.5934,-2.5931,-2.5937,-2.5933,-2.6,-2.6001,-2.5998,0,0]},{"header":{"parameterUnit":"m.s-1","parameterCategory":1,"la1":30.2992,"la2":30.254,"lo1":-89.0895,"lo2":-89.0443,"dy":0.0025,"dx":0.0025,"nx":19,"ny":19,"refTime":"2026-05-24T21:00:00:Z","depth":0,"parameterNumber":3,"parameterNumberName":"V-component_of_WINDS"},"data":[0,0,0,2.8138,2.8141,2.8245,2.8245,2.8383,2.8384,0,0,0,0,0,0,0,0,0,0,0,2.8114,2.8115,2.8138,2.8141,2.8245,2.8245,2.8383,2.8384,0,0,0,0,0,0,0,0,0,0,0,2.8113,2.8115,2.8116,2.8142,2.8245,2.8245,2.8382,2.8302,0,0,0,0,0,0,0,0,0,0,2.82,2.8183,2.8114,2.8116,2.8142,2.8245,2.8245,2.8298,2.8307,2.8339,0,2.8372,0,2.8381,2.8394,2.8395,0,0,0,2.8136,2.8176,2.8199,2.8116,2.8143,2.8244,2.8196,2.8303,2.8313,2.8351,2.8374,2.8379,2.8383,2.8395,2.8396,2.8605,2.8606,0,0,2.813,2.8135,2.8192,2.8206,2.8193,2.8193,2.82,2.8309,2.8333,2.8374,2.8382,2.8385,2.8396,2.8397,2.8604,2.8605,0,0,0,2.8117,2.8131,2.8151,2.82,2.8219,2.8196,2.8204,2.8328,2.8334,2.8383,2.8387,2.8397,2.8399,2.8602,2.8604,2.8669,0,0,0,2.8114,2.8124,2.8149,2.8153,2.8217,2.8275,2.8221,2.8326,2.8339,2.8386,2.8397,2.84,2.8601,2.8603,2.8665,2.8699,0,0,0,2.8105,2.8122,2.814,2.8153,2.8198,2.8273,2.8286,2.8329,2.8341,2.8395,2.84,2.86,2.8603,2.8661,2.8692,2.8755,0,0,0,2.8096,2.8196,2.8141,2.8253,2.8197,2.8314,2.8285,2.8371,2.8425,2.8398,2.8601,2.8604,2.8659,2.8688,2.8751,2.8808,2.8833,0,0,2.8224,2.8211,2.8277,2.8231,2.8359,2.8297,2.8434,2.8478,2.8477,2.8561,2.8567,2.8666,2.8692,2.8754,2.8972,2.8992,0,0,0,2.8319,2.8366,2.8399,2.8451,2.8488,2.8522,2.8545,2.856,2.8632,2.8523,2.8706,2.8721,2.8757,2.8785,2.8801,2.8832,2.8617,2.8617,2.8617,2.8506,2.8502,2.8609,2.8617,2.8668,2.869,2.873,2.8755,2.8735,2.8778,2.8803,2.8936,2.8968,2.8981,2.9013,2.8833,2.8834,2.8834,2.8834,2.8692,2.8758,2.8729,2.8823,2.8817,2.8894,2.8919,2.8902,2.8972,2.8917,2.8949,2.8889,2.9003,2.903,2.8839,2.8838,2.8838,2.8837,2.8837,2.8814,2.8845,2.8863,2.8938,2.8995,2.8999,2.9068,2.9059,2.9051,2.9083,2.9107,2.9106,2.9103,2.9095,2.9096,2.9096,2.9096,2.9097,2.9097,2.8933,2.8952,2.9012,2.906,2.9091,2.9132,2.9155,2.9185,2.9216,2.9204,2.9204,2.9178,2.9016,2.8974,2.9104,2.9103,2.9102,2.9101,2.9101,2.9123,2.9078,2.9172,2.9204,2.9257,2.9314,2.9302,2.9365,2.9388,2.9422,2.939,2.9271,2.9256,2.9243,2.9209,2.9391,2.9391,2.9391,2.9391,2.9225,2.9217,2.931,2.9362,2.9411,2.941,2.9512,2.953,2.9541,2.9555,2.9527,2.9481,2.9468,2.9461,2.9443,2.941,2.964,2.9641,2.9641,2.9341,2.9337,2.9428,2.944,2.9481,2.9515,2.9611,2.9669,2.9672,2.9651,2.9565,2.9554,2.948,2.9456,2.9432,2.9404,2.9345,0,0]}]]